sat.trackr.live / text

‹ back to catalog

STARLINK-11684 [DTC]

NORAD 64240 · 2025-119H

PAYLOAD ACTIVE UNKNOWN

§ Identity

Operator
Country
US
Launch date
2025-06-03
Launch site
AFETR
Launch vehicle
Mass (kg)
RCS (m²)

Purposes: comms

External: N2YO · Heavens-Above · Gunter

§ Orbital elements

Epoch: 2026-09-20T15:19:32.733120Z

Period
91.67 min
Inclination
43.0005°
Eccentricity
0.0002807
Mean motion
15.70920177 rev/d
Perigee alt
354.4 km
Apogee alt
358.2 km
Semi-major
6,734.4 km
B*
1.0597e-3
RAAN
114.1588°
Arg perigee
254.5793°
Mean anomaly
105.4764°
Rev number
7,590

§ Raw data

STARLINK-11684 [DTC]1 64240U 25119H   26263.63857330  .00138290  00000+0  10597-2 0  99942 64240  43.0005 114.1588 0002807 254.5793 105.4764 15.70920177 75907

JSON: /api/v1/satellites/64240 · /tle

For live sub-satellite position, see the globe view (requires WebGL).

§ Visibility from observer

Set your observer location to see the next 7 days of passes ≥ 10°. The values pass through the URL so the page stays shareable.

No JS? Fill the form by hand. The geolocation button needs JavaScript.